Location: Newark
(51.2375°N, 2.9933°W)
Time: 06:35:21
(UTC+00:00)

N. Korean satellite - Visible Passes

Search period start: 23 September 2020 00:00
Search period end: 03 October 2020 00:00
Orbit: 455 x 503 km, 97.2° (Epoch: 22 September)

Date Brightness Start Highest point End Pass type
(mag) Time Alt. Az. Time Alt. Az. Time Alt. Az.
23 Sep 10.1 04:39:35 10° ENE 04:41:12 12° E 04:42:48 10° ESE visible
25 Sep 8.8 05:19:32 10° NNE 05:22:52 32° E 05:26:09 10° SSE visible
26 Sep 9.8 04:54:08 10° NE 04:56:40 18° E 04:59:09 10° SE visible
28 Sep 7.9 05:34:40 10° NNE 05:38:13 47° E 05:41:41 10° S visible
29 Sep 9.2 05:09:01 10° NE 05:12:04 25° E 05:15:03 10° SSE visible
30 Sep 10.0 04:43:54 10° ENE 04:45:48 14° E 04:47:40 10° ESE visible
02 Oct 8.5 05:24:02 10° NNE 05:27:24 35° E 05:30:42 10° SSE visible
